Dublin, Ireland

6:31 PM GMT on January 17, 2017 (GMT +0000)
Dublin International

Weather History for EIDW - November, 2012

Change the Weather History Date:

Monday, November 5, 2012

  Actual Average Record
Temperature  
Mean Temperature 40 °F -  
Max Temperature 48 °F 49 °F 59 °F (2003)
Min Temperature 33 °F 40 °F 30 °F (2000)
Degree Days  
Heating Degree Days 24    
Moisture  
Dew Point 37 °F    
Average Humidity 86    
Maximum Humidity 100    
Minimum Humidity 68    
Precipitation  
Precipitation 0.00 in 0.09 in - ()
Sea Level Pressure  
Sea Level Pressure 29.84 in    
Wind  
Wind Speed 10 mph ()    
Max Wind Speed 16 mph    
Max Gust Speed -    
Visibility 6.7 miles    
Events      
Averages and records for this station are not official NWS values.
T = Trace of Precipitation, MM = Missing Value Source: Averaged Metar Reports

Daily Weather History Graph

Daily Weather History Graph

Search for Another Location

Airport or City:

Trip Planner

Search our weather history database for the weather conditions in past years. The results will help you decide how hot, cold, wet, or windy it might be!

Date:

Astronomy

Nov. 05, 2012 Rise Set
Actual Time 7:32 AM GMT 4:44 PM GMT
Civil Twilight 6:54 AM GMT 5:21 PM GMT
Nautical Twilight 6:12 AM GMT 6:03 PM GMT
Astronomical Twilight 5:32 AM GMT 6:43 PM GMT
Moon 10:06 PM GMT (11/5) 12:47 PM GMT (11/5)
Length of Visible Light 10h 27m
Length of Day
9h 12m
Waning Gibbous, 65% of the Moon is Illuminated
Nov 5
Waning Gibbous
Nov 7
Last Quarter
Nov 13
New
Nov 20
First Quarter
Nov 28
Full

Hourly Weather History & Observations

Time (GMT) Temp. Windchill Dew Point Humidity Pressure Visibility Wind Dir Wind Speed Gust Speed Precip Events Conditions
12:00 AM 44 °F - 37 °F 68% 29.55 in 19 mi ENE 15.7 mph - -   Partly Cloudy
12:00 AM 44.6 °F 37.4 °F 37.4 °F 76% 29.53 in 6.2 mi ENE 16.1 mph - N/A   Scattered Clouds
12:30 AM 42.8 °F 35.8 °F 37.4 °F 81% 29.56 in 6.2 mi ENE 13.8 mph - N/A   Scattered Clouds
1:00 AM 42.8 °F 37.0 °F 35.6 °F 76% 29.56 in 6.2 mi ENE 10.4 mph - N/A   Scattered Clouds
1:30 AM 41.0 °F 34.7 °F 35.6 °F 81% 29.59 in 6.2 mi ENE 10.4 mph - N/A   Partly Cloudy
2:00 AM 41.0 °F 35.2 °F 35.6 °F 81% 29.59 in 6.2 mi NE 9.2 mph - N/A   Partly Cloudy
2:30 AM 39.2 °F 34.2 °F 35.6 °F 87% 29.62 in 6.2 mi NE 6.9 mph - N/A   Partly Cloudy
3:00 AM 39.2 °F 33.6 °F 35.6 °F 87% 29.62 in 6.2 mi NNE 8.1 mph - N/A   Partly Cloudy
3:30 AM 39.2 °F 33.0 °F 33.8 °F 81% 29.65 in 6.2 mi NNE 9.2 mph - N/A   Partly Cloudy
4:00 AM 39.2 °F 33.0 °F 37.4 °F 93% 29.65 in 6.2 mi NNW 9.2 mph - N/A   Partly Cloudy
4:30 AM 39.2 °F 33.0 °F 37.4 °F 93% 29.68 in 6.2 mi NNW 9.2 mph - N/A   Partly Cloudy
5:00 AM 39.2 °F 32.5 °F 37.4 °F 93% 29.68 in 6.2 mi NNW 10.4 mph - N/A   Partly Cloudy
5:30 AM 37.4 °F 30.3 °F 33.8 °F 87% 29.71 in 6.2 mi NNW 10.4 mph - N/A   Partly Cloudy
6:00 AM 34 °F - 32 °F 91% 29.76 in 19 mi NNW 8.9 mph - -   Scattered Clouds
6:00 AM 33.8 °F 26.4 °F 32.0 °F 93% 29.74 in 6.2 mi NNW 9.2 mph - N/A   Partly Cloudy
6:30 AM 33.8 °F 25.8 °F 33.8 °F 100% 29.74 in 6.2 mi NNW 10.4 mph - N/A   Partly Cloudy
7:00 AM 33.8 °F 27.0 °F 32.0 °F 93% 29.74 in 6.2 mi NW 8.1 mph - N/A   Partly Cloudy
7:30 AM 33.8 °F 26.4 °F 32.0 °F 93% 29.77 in 6.2 mi NW 9.2 mph - N/A   Partly Cloudy
8:00 AM 33.8 °F 25.3 °F 32.0 °F 93% 29.80 in 6.2 mi WNW 11.5 mph - N/A   Partly Cloudy
8:30 AM 35.6 °F 28.0 °F 33.8 °F 93% 29.80 in 6.2 mi WNW 10.4 mph - N/A   Partly Cloudy
9:00 AM 37.4 °F 29.8 °F 35.6 °F 93% 29.83 in 6.2 mi NW 11.5 mph - N/A   Partly Cloudy
9:30 AM 39.2 °F 32.5 °F 37.4 °F 93% 29.83 in 6.2 mi NW 10.4 mph - N/A   Partly Cloudy
10:00 AM 41.0 °F 34.3 °F 37.4 °F 87% 29.83 in 6.2 mi WNW 11.5 mph - N/A   Partly Cloudy
10:30 AM 41.0 °F 34.7 °F 37.4 °F 87% 29.86 in 6.2 mi WNW 10.4 mph - N/A   Partly Cloudy
11:00 AM 42.8 °F 37.5 °F 39.2 °F 87% 29.86 in 6.2 mi West 9.2 mph - N/A   Partly Cloudy
11:30 AM 44.6 °F 38.8 °F 39.2 °F 81% 29.86 in 6.2 mi West 11.5 mph - N/A   Partly Cloudy
12:00 PM 46 °F - 40 °F 74% 29.89 in 25 mi WNW 13.4 mph - -   Scattered Clouds
12:00 PM 46.4 °F 40.4 °F 41.0 °F 81% 29.86 in 6.2 mi WNW 13.8 mph - N/A   Partly Cloudy
12:30 PM 46.4 °F 40.7 °F 41.0 °F 81% 29.89 in 6.2 mi WNW 12.7 mph - N/A   Scattered Clouds
1:00 PM 46.4 °F 40.4 °F 41.0 °F 81% 29.89 in 6.2 mi WNW 13.8 mph - N/A   Scattered Clouds
1:30 PM 46.4 °F 41.1 °F 41.0 °F 81% 29.89 in 6.2 mi WNW 11.5 mph - N/A   Scattered Clouds
2:00 PM 46.4 °F 40.4 °F 41.0 °F 81% 29.89 in 6.2 mi WNW 13.8 mph - N/A   Partly Cloudy
2:30 PM 46.4 °F 40.7 °F 39.2 °F 76% 29.89 in 6.2 mi NW 12.7 mph - N/A   Partly Cloudy
3:00 PM 48.2 °F - 41.0 °F 76% 29.92 in 6.2 mi NW 11.5 mph - N/A   Partly Cloudy
3:30 PM 46.4 °F 40.4 °F 39.2 °F 76% 29.92 in 6.2 mi NW 13.8 mph - N/A   Partly Cloudy
4:00 PM 46.4 °F 41.5 °F 39.2 °F 76% 29.92 in 6.2 mi NW 10.4 mph - N/A   Partly Cloudy
4:30 PM 44.6 °F 39.7 °F 39.2 °F 81% 29.95 in 6.2 mi WNW 9.2 mph - N/A   Scattered Clouds
5:00 PM 42.8 °F 36.6 °F 37.4 °F 81% 29.95 in 6.2 mi WNW 11.5 mph - N/A   Partly Cloudy
5:30 PM 41.0 °F 34.7 °F 37.4 °F 87% 29.98 in 6.2 mi WNW 10.4 mph - N/A   Partly Cloudy
6:00 PM 40 °F - 37 °F 84% 30.01 in 31 mi West 8.9 mph - -   Scattered Clouds
6:00 PM 41.0 °F 35.2 °F 37.4 °F 87% 29.98 in 6.2 mi West 9.2 mph - N/A   Partly Cloudy
6:30 PM 39.2 °F 33.0 °F 37.4 °F 93% 30.01 in 6.2 mi WNW 9.2 mph - N/A   Scattered Clouds
7:00 PM 41.0 °F 34.7 °F 37.4 °F 87% 30.01 in 6.2 mi WNW 10.4 mph - N/A   Partly Cloudy
7:30 PM 39.2 °F 32.0 °F 37.4 °F 93% 30.04 in 6.2 mi WNW 11.5 mph - N/A   Partly Cloudy
8:00 PM 39.2 °F 32.0 °F 37.4 °F 93% 30.04 in 6.2 mi WNW 11.5 mph - N/A   Partly Cloudy
8:30 PM 39.2 °F 32.0 °F 35.6 °F 87% 30.06 in 6.2 mi WNW 11.5 mph - N/A   Partly Cloudy
9:00 PM 37.4 °F 30.8 °F 35.6 °F 93% 30.06 in 6.2 mi WNW 9.2 mph - N/A   Partly Cloudy
9:30 PM 37.4 °F 30.3 °F 35.6 °F 93% 30.06 in 6.2 mi WNW 10.4 mph - N/A   Partly Cloudy
10:00 PM 37.4 °F 28.9 °F 35.6 °F 93% 30.09 in 6.2 mi West 13.8 mph - N/A   Partly Cloudy
10:30 PM 37.4 °F 29.3 °F 35.6 °F 93% 30.09 in 6.2 mi West 12.7 mph - N/A   Partly Cloudy
11:00 PM 37.4 °F 29.8 °F 35.6 °F 93% 30.09 in 6.2 mi West 11.5 mph - N/A   Partly Cloudy
11:30 PM 37.4 °F 29.8 °F 35.6 °F 93% 30.09 in 6.2 mi West 11.5 mph - N/A   Partly Cloudy